Location: Madden
(51.3728°N, 114.3297°W)
Time: 08:04:19
(UTC+00:00)

ITUPSAT 1 - Visible Passes

Search period start: 03 December 2023 00:00
Search period end: 13 December 2023 00:00
Orbit: 697 x 707 km, 98.5° (Epoch: 02 December)

Date Brightness Start Highest point End Pass type
(mag) Time Alt. Az. Time Alt. Az. Time Alt. Az.
04 Dec ? 14:20:53 10° ENE 14:22:55 13° NE 14:24:56 10° NNE visible
06 Dec ? 14:10:14 10° NE 14:10:50 10° NE 14:11:26 10° NE visible
09 Dec ? 14:37:48 10° E 14:40:46 17° NE 14:43:45 10° NNE visible
11 Dec ? 14:26:18 10° E 14:28:37 14° NE 14:30:57 10° NNE visible
